�������l�o���
Date,Time,MP-1(��Sv/h),MP-2(��Sv/h),MP-3(��Sv/h),MP-4(��Sv/h),MP-5(��Sv/h),MP-6(��Sv/h),MP-7(��Sv/h),MP-8(��Sv/h),����,����(m/s),���J
2023/09/01,00:00,0.556,0.843,0.514,1.051,0.764,0.329,0.592,0.543,��,8.9,��
2023/09/01,00:10,0.556,0.844,0.513,1.050,0.762,0.329,0.590,0.543,��,9.0,��
2023/09/01,00:20,0.556,0.843,0.514,1.048,0.762,0.330,0.590,0.544,��,9.0,��
2023/09/01,00:30,0.554,0.844,0.515,1.050,0.763,0.329,0.591,0.545,��,8.4,��
2023/09/01,00:40,0.557,0.846,0.515,1.050,0.765,0.329,0.590,0.543,��,8.6,��
2023/09/01,00:50,0.558,0.843,0.515,1.050,0.763,0.328,0.589,0.543,��,8.2,��
2023/09/01,01:00,0.556,0.843,0.515,1.050,0.764,0.329,0.591,0.543,��,7.8,��
2023/09/01,01:10,0.557,0.842,0.514,1.052,0.765,0.331,0.589,0.542,��,8.0,��
2023/09/01,01:20,0.554,0.840,0.515,1.050,0.763,0.328,0.588,0.544,��,7.7,��
2023/09/01,01:30,0.555,0.844,0.515,1.051,0.761,0.328,0.590,0.545,��,7.8,��
2023/09/01,01:40,0.557,0.844,0.514,1.051,0.762,0.328,0.588,0.544,��,7.3,��
2023/09/01,01:50,0.556,0.841,0.516,1.051,0.764,0.329,0.590,0.544,��,6.5,��
2023/09/01,02:00,0.559,0.843,0.513,1.052,0.762,0.330,0.588,0.544,��,7.0,��
2023/09/01,02:10,0.555,0.844,0.515,1.050,0.763,0.328,0.590,0.542,��,6.8,��
2023/09/01,02:20,0.557,0.843,0.513,1.053,0.764,0.329,0.591,0.543,��,6.8,��
2023/09/01,02:30,0.556,0.844,0.514,1.052,0.762,0.328,0.592,0.543,��,6.8,��
2023/09/01,02:40,0.558,0.842,0.514,1.050,0.763,0.330,0.590,0.543,��,6.7,��
2023/09/01,02:50,0.556,0.842,0.514,1.050,0.762,0.328,0.591,0.544,��,6.4,��
2023/09/01,03:00,0.556,0.846,0.515,1.049,0.764,0.330,0.589,0.543,��,6.5,��
2023/09/01,03:10,0.557,0.841,0.514,1.051,0.765,0.329,0.589,0.543,��,6.9,��
2023/09/01,03:20,0.555,0.842,0.515,1.051,0.764,0.329,0.589,0.544,��,7.6,��
2023/09/01,03:30,0.557,0.844,0.514,1.052,0.763,0.329,0.590,0.543,��,7.8,��
2023/09/01,03:40,0.556,0.843,0.516,1.051,0.762,0.328,0.589,0.544,��,7.9,��
2023/09/01,03:50,0.556,0.842,0.515,1.050,0.763,0.329,0.588,0.543,��,8.1,��
2023/09/01,04:00,0.558,0.844,0.514,1.052,0.764,0.329,0.589,0.545,��,8.4,��
2023/09/01,04:10,0.558,0.843,0.515,1.050,0.763,0.329,0.590,0.544,��,7.4,��
2023/09/01,04:20,0.557,0.844,0.514,1.052,0.763,0.328,0.587,0.543,��,7.4,��
2023/09/01,04:30,0.558,0.844,0.514,1.051,0.762,0.329,0.589,0.542,��,7.8,��
2023/09/01,04:40,0.557,0.844,0.516,1.054,0.763,0.329,0.590,0.543,��,8.3,��
2023/09/01,04:50,0.557,0.843,0.514,1.050,0.763,0.327,0.589,0.544,��,7.9,��
2023/09/01,05:00,0.556,0.841,0.515,1.051,0.763,0.328,0.588,0.543,��,7.2,��
2023/09/01,05:10,0.556,0.840,0.514,1.048,0.762,0.329,0.590,0.543,��,6.5,��
2023/09/01,05:20,0.555,0.843,0.515,1.052,0.764,0.327,0.588,0.543,��,5.3,��
2023/09/01,05:30,0.556,0.842,0.512,1.050,0.762,0.328,0.589,0.545,��,3.8,��
2023/09/01,05:40,0.555,0.842,0.515,1.052,0.761,0.329,0.589,0.545,��쓌,4.2,��
2023/09/01,05:50,0.555,0.842,0.516,1.051,0.763,0.328,0.589,0.543,��,4.9,��
2023/09/01,06:00,0.556,0.844,0.515,1.052,0.763,0.329,0.590,0.544,��,4.3,��
2023/09/01,06:10,0.557,0.843,0.514,1.051,0.762,0.329,0.589,0.544,��,4.0,��
2023/09/01,06:20,0.556,0.843,0.513,1.048,0.763,0.330,0.589,0.544,��,3.4,��
2023/09/01,06:30,0.556,0.842,0.515,1.053,0.762,0.331,0.590,0.544,��,4.5,��
2023/09/01,06:40,0.555,0.842,0.513,1.052,0.762,0.328,0.591,0.544,��,4.9,��
2023/09/01,06:50,0.557,0.841,0.513,1.050,0.762,0.328,0.590,0.543,��,5.4,��
2023/09/01,07:00,0.556,0.840,0.516,1.052,0.764,0.329,0.589,0.544,��,5.2,��
2023/09/01,07:10,0.555,0.844,0.514,1.053,0.762,0.329,0.591,0.544,��,4.6,��
2023/09/01,07:20,0.556,0.840,0.514,1.050,0.763,0.330,0.591,0.544,��,4.2,��
2023/09/01,07:30,0.556,0.840,0.514,1.051,0.765,0.328,0.590,0.544,��,5.7,��
2023/09/01,07:40,0.557,0.842,0.513,1.050,0.762,0.330,0.590,0.545,��,4.7,��
2023/09/01,07:50,0.556,0.840,0.513,1.049,0.762,0.329,0.590,0.544,��,5.3,��
2023/09/01,08:00,0.556,0.843,0.516,1.054,0.761,0.329,0.590,0.544,��,5.5,��
2023/09/01,08:10,0.556,0.842,0.514,1.048,0.761,0.329,0.589,0.545,��쓌,5.7,��
2023/09/01,08:20,0.556,0.843,0.514,1.051,0.761,0.329,0.589,0.545,��,5.5,��
2023/09/01,08:30,0.556,0.840,0.515,1.049,0.762,0.329,0.590,0.545,��,6.8,��
2023/09/01,08:40,0.557,0.840,0.513,1.053,0.760,0.328,0.591,0.545,��쓌,7.1,��
2023/09/01,08:50,0.555,0.840,0.514,1.050,0.762,0.331,0.590,0.543,��,7.4,��
2023/09/01,09:00,0.556,0.840,0.514,1.051,0.763,0.330,0.591,0.543,��쓌,9.3,��
2023/09/01,09:10,0.555,0.841,0.515,1.052,0.762,0.329,0.590,0.543,��쓌,9.7,��
2023/09/01,09:20,0.555,0.841,0.515,1.050,0.762,0.329,0.590,0.544,��쓌,9.6,��
2023/09/01,09:30,0.554,0.842,0.514,1.052,0.764,0.329,0.589,0.543,��,8.8,��
2023/09/01,09:40,0.558,0.840,0.513,1.052,0.763,0.326,0.591,0.544,��쓌,9.0,��
2023/09/01,09:50,0.556,0.843,0.515,1.051,0.764,0.328,0.591,0.543,��쓌,9.7,��
2023/09/01,10:00,0.556,0.842,0.514,1.051,0.763,0.328,0.590,0.544,��쓌,10.3,��
2023/09/01,10:10,0.556,0.844,0.515,1.051,0.764,0.329,0.590,0.544,��쓌,10.2,��
2023/09/01,10:20,0.558,0.841,0.515,1.050,0.761,0.328,0.590,0.544,��쓌,9.7,��
2023/09/01,10:30,0.557,0.842,0.515,1.051,0.763,0.328,0.589,0.544,��,9.9,��
2023/09/01,10:40,0.556,0.843,0.515,1.052,0.763,0.328,0.590,0.543,��쓌,10.2,��
2023/09/01,10:50,0.556,0.843,0.513,1.053,0.763,0.329,0.590,0.542,��,8.0,��
2023/09/01,11:00,0.554,0.841,0.513,1.053,0.762,0.328,0.591,0.545,��쓌,10.0,��
2023/09/01,11:10,0.556,0.840,0.516,1.053,0.764,0.329,0.591,0.544,��쓌,10.2,��
2023/09/01,11:20,0.555,0.843,0.515,1.056,0.764,0.329,0.591,0.545,��,8.1,��
2023/09/01,11:30,0.557,0.842,0.515,1.053,0.764,0.327,0.592,0.545,��쓌,11.6,��
2023/09/01,11:40,0.557,0.843,0.515,1.055,0.763,0.329,0.591,0.544,��쓌,9.9,��
2023/09/01,11:50,0.557,0.841,0.517,1.053,0.764,0.328,0.589,0.543,��쓌,9.1,��
2023/09/01,12:00,0.555,0.845,0.517,1.054,0.764,0.329,0.592,0.545,��쓌,11.1,��
2023/09/01,12:10,0.556,0.843,0.516,1.055,0.765,0.329,0.589,0.544,��쓌,12.0,��
2023/09/01,12:20,0.557,0.843,0.517,1.052,0.765,0.328,0.590,0.544,��쓌,10.7,��
2023/09/01,12:30,0.557,0.844,0.518,1.054,0.764,0.329,0.591,0.545,��,9.2,��
2023/09/01,12:40,0.556,0.843,0.517,1.053,0.765,0.328,0.592,0.543,��,11.8,��
2023/09/01,12:50,0.557,0.846,0.517,1.055,0.767,0.327,0.592,0.545,��쓌,9.3,��
2023/09/01,13:00,0.558,0.844,0.516,1.054,0.766,0.329,0.592,0.544,��,11.6,��
2023/09/01,13:10,0.556,0.845,0.517,1.055,0.764,0.328,0.593,0.544,��쓌,13.5,��
2023/09/01,13:20,0.557,0.844,0.516,1.057,0.766,0.328,0.591,0.545,��,12.0,��
2023/09/01,13:30,0.557,0.842,0.518,1.054,0.765,0.327,0.592,0.546,��,13.0,��
2023/09/01,13:40,0.557,0.845,0.517,1.053,0.765,0.329,0.593,0.546,��쓌,16.1,��
2023/09/01,13:50,0.558,0.842,0.518,1.055,0.765,0.328,0.591,0.546,��쓌,14.7,��
2023/09/01,14:00,0.557,0.844,0.517,1.055,0.767,0.328,0.593,0.546,��쓌,13.8,��
2023/09/01,14:10,0.557,0.844,0.515,1.056,0.766,0.327,0.590,0.546,��쓌,15.5,��
2023/09/01,14:20,0.557,0.844,0.515,1.055,0.767,0.326,0.591,0.546,��쓌,14.9,��
2023/09/01,14:30,0.557,0.843,0.516,1.056,0.768,0.326,0.593,0.546,��,13.9,��
2023/09/01,14:40,0.558,0.842,0.515,1.056,0.767,0.327,0.593,0.544,��쓌,13.8,��
2023/09/01,14:50,0.556,0.844,0.517,1.054,0.766,0.327,0.593,0.544,��,13.3,��
2023/09/01,15:00,0.557,0.843,0.518,1.055,0.766,0.329,0.593,0.545,��쓌,12.4,��
2023/09/01,15:10,0.558,0.843,0.516,1.054,0.766,0.329,0.592,0.542,��,11.3,��
2023/09/01,15:20,0.556,0.843,0.517,1.053,0.766,0.329,0.592,0.544,��,9.4,��
2023/09/01,15:30,0.558,0.843,0.517,1.051,0.766,0.329,0.593,0.542,��,8.8,��
2023/09/01,15:40,0.556,0.843,0.516,1.053,0.766,0.331,0.592,0.543,��,9.9,��
2023/09/01,15:50,0.558,0.841,0.517,1.054,0.767,0.330,0.592,0.545,��,10.5,��
2023/09/01,16:00,0.558,0.844,0.518,1.052,0.767,0.329,0.593,0.546,��,10.2,��
2023/09/01,16:10,0.557,0.845,0.518,1.052,0.767,0.331,0.591,0.545,��,11.6,��
2023/09/01,16:20,0.556,0.844,0.516,1.054,0.768,0.331,0.591,0.544,��,11.1,��
2023/09/01,16:30,0.557,0.844,0.519,1.050,0.766,0.330,0.591,0.546,��,10.0,��
2023/09/01,16:40,0.558,0.845,0.517,1.054,0.765,0.331,0.590,0.546,��,9.6,��
2023/09/01,16:50,0.557,0.846,0.518,1.056,0.765,0.329,0.592,0.543,��,8.6,��
2023/09/01,17:00,0.559,0.849,0.519,1.058,0.766,0.330,0.593,0.543,��,9.8,��
2023/09/01,17:10,0.559,0.843,0.519,1.055,0.766,0.329,0.593,0.544,��,9.8,��
2023/09/01,17:20,0.557,0.847,0.517,1.054,0.765,0.329,0.592,0.544,��,9.9,��
2023/09/01,17:30,0.557,0.846,0.517,1.055,0.764,0.329,0.591,0.544,��,9.2,��
2023/09/01,17:40,0.557,0.844,0.517,1.054,0.766,0.330,0.591,0.543,��,8.8,��
2023/09/01,17:50,0.557,0.844,0.518,1.054,0.764,0.328,0.592,0.545,��,9.7,��
2023/09/01,18:00,0.558,0.843,0.517,1.053,0.766,0.329,0.590,0.543,��,8.5,��
2023/09/01,18:10,0.556,0.845,0.515,1.053,0.763,0.329,0.591,0.545,��,7.7,��
2023/09/01,18:20,0.559,0.844,0.516,1.053,0.765,0.329,0.590,0.544,��,7.4,��
2023/09/01,18:30,0.557,0.844,0.518,1.054,0.764,0.329,0.590,0.545,��,6.7,��
2023/09/01,18:40,0.558,0.844,0.517,1.055,0.765,0.329,0.589,0.543,��쓌,7.4,��
2023/09/01,18:50,0.557,0.844,0.515,1.056,0.763,0.329,0.591,0.544,��,7.4,��
2023/09/01,19:00,0.558,0.844,0.518,1.056,0.766,0.330,0.589,0.544,��,7.7,��
2023/09/01,19:10,0.559,0.844,0.516,1.054,0.764,0.329,0.590,0.545,��,6.6,��
2023/09/01,19:20,0.559,0.844,0.518,1.052,0.765,0.329,0.593,0.545,��,6.8,��
2023/09/01,19:30,0.559,0.845,0.517,1.053,0.764,0.330,0.592,0.544,��,7.4,��
2023/09/01,19:40,0.557,0.845,0.517,1.053,0.764,0.329,0.590,0.545,��쓌,6.9,��
2023/09/01,19:50,0.557,0.844,0.516,1.052,0.767,0.328,0.591,0.544,��쓌,8.0,��
2023/09/01,20:00,0.558,0.844,0.517,1.053,0.764,0.328,0.589,0.546,��,8.5,��
2023/09/01,20:10,0.557,0.845,0.519,1.052,0.768,0.330,0.591,0.545,��,7.8,��
2023/09/01,20:20,0.558,0.846,0.519,1.053,0.764,0.330,0.591,0.545,��,8.0,��
2023/09/01,20:30,0.557,0.845,0.518,1.053,0.766,0.329,0.591,0.544,��,7.0,��
2023/09/01,20:40,0.557,0.845,0.517,1.052,0.765,0.330,0.592,0.543,��,7.0,��
2023/09/01,20:50,0.559,0.846,0.517,1.053,0.765,0.329,0.592,0.545,��,5.7,��
2023/09/01,21:00,0.558,0.845,0.518,1.055,0.765,0.330,0.591,0.545,��,6.7,��
2023/09/01,21:10,0.556,0.845,0.518,1.054,0.766,0.329,0.591,0.544,��,6.2,��
2023/09/01,21:20,0.556,0.846,0.518,1.054,0.763,0.330,0.591,0.544,��,6.5,��
2023/09/01,21:30,0.557,0.846,0.516,1.053,0.765,0.331,0.591,0.544,��,6.5,��
2023/09/01,21:40,0.559,0.845,0.517,1.056,0.764,0.330,0.591,0.543,��,6.6,��
2023/09/01,21:50,0.557,0.844,0.518,1.055,0.765,0.329,0.591,0.545,��,6.5,��
2023/09/01,22:00,0.558,0.844,0.518,1.057,0.765,0.329,0.592,0.544,��,6.8,��
2023/09/01,22:10,0.559,0.846,0.517,1.053,0.764,0.330,0.591,0.545,��,6.3,��
2023/09/01,22:20,0.557,0.845,0.517,1.055,0.765,0.329,0.592,0.543,��,7.0,��
2023/09/01,22:30,0.557,0.844,0.516,1.056,0.766,0.331,0.590,0.544,��,7.7,��
2023/09/01,22:40,0.557,0.844,0.519,1.055,0.765,0.331,0.591,0.545,��,7.9,��
2023/09/01,22:50,0.557,0.846,0.516,1.053,0.764,0.330,0.591,0.545,��,6.8,��
2023/09/01,23:00,0.555,0.843,0.519,1.052,0.763,0.328,0.591,0.545,��,5.9,��
2023/09/01,23:10,0.558,0.844,0.517,1.053,0.765,0.330,0.591,0.544,��,6.5,��
2023/09/01,23:20,0.557,0.845,0.517,1.054,0.764,0.329,0.591,0.543,��,6.8,��
2023/09/01,23:30,0.558,0.845,0.518,1.054,0.764,0.330,0.591,0.545,��,5.6,��
2023/09/01,23:40,0.559,0.844,0.516,1.052,0.765,0.330,0.591,0.544,��,4.9,��
2023/09/01,23:50,0.558,0.843,0.519,1.053,0.765,0.330,0.592,0.544,��,4.8,��
